Regional Weather Roundup
Issued by NWS Newport/Morehead, NC

Home | Current Version | Previous Version | Text Only | Print | Product List | Glossary On
Versions: 1 2 3 4 5 6 7 8 9 10 11 12 13 14 15 16 17 18 19 20 21 22 23 24 25 26 27 28 29 30 31 32 33 34 35 36 37 38 39 40 41 42 43 44 45 46 47 48 49 50
000
ASUS42 KMHX 011022
RWRMHX
WEATHER ROUNDUP FOR EASTERN NORTH CAROLINA
NATIONAL WEATHER SERVICE NEWPORT/MOREHEAD CITY NC
600 AM EDT SAT NOV 01 2014

NOTE: "FAIR" INDICATES FEW OR NO CLOUDS BELOW 12,000 FEET
WITH NO SIGNIFICANT WEATHER AND/OR OBSTRUCTIONS TO VISIBILITY

NCZ015>017-031-032-045>047-102-103-011100-
NORTH COAST

CITY           SKY/WX    TMP DP  RH WIND       PRES   REMARKS
EDENTON        PTCLDY    43  41  91 CALM      29.70S
ELIZABETH CITY CLEAR     43  39  86 W6        29.69S
KITTY HAWK     SUNNY     51  47  86 NW6       29.65S
MANTEO         CLEAR     52  47  84 NW9       29.67R

$$

NCZ045>047-081-094-103-104-011100-
CENTRAL COAST

CITY           SKY/WX    TMP DP  RH WIND       PRES   REMARKS
FRISCO         CLEAR     53  49  86 NW9       29.67R
SWANQUARTER      N/A     45 N/A N/A N1        29.65S

$$

NCZ095-097-098-100-101-011100-
SOUTHERN COAST

CITY           SKY/WX    TMP DP  RH WIND       PRES   REMARKS
BEAUFORT       PTCLDY    48  45  89 N3        29.70R
CEDAR ISLAND     N/A     54 N/A N/A VRB5G15   29.71S
JACKSONVILLE   LGT RAIN  48  44  86 N6        29.68F
PINEY ISLAND   SUNNY     54  45  71 N6        29.68S
WILMINGTON     PTCLDY    47  45  93 NE9       29.65F


$$

NCZ011>013-027>030-043-044-078>080-089-090>093-098-011100-
COASTAL PLAIN

CITY           SKY/WX    TMP DP  RH WIND       PRES   REMARKS
AHOSKIE        NOT AVBL
CLINTON        CLOUDY    47  46  99 NE9       29.69F
ELIZABETHTOWN  CLOUDY    47  46  98 CALM      29.67F
GOLDSBORO      LGT RAIN  46  45  97 VRB5      29.71S
GREENVILLE     PTCLDY    43  41  93 N3        29.75S
HAVELOCK       CLEAR     49  44  83 N3        29.70
KENANSVILLE    CLOUDY    46  44  94 N6        29.71F
KINSTON        CLOUDY    45  43  92 NW3       29.73R
NEW BERN       MOCLDY    45  41  86 CALM      29.71S
RICHLANDS      CLOUDY    45  41  87 N8        29.69F
ROCKY MOUNT    CLOUDY    46  41  82 W6        29.75R
WASHINGTON     CLEAR     41  39  91 CALM      29.71S
WHITEVILLE     MOCLDY    48  45  88 NE3       29.65S

$$

AMZ130-135-150-152-154-156-158-170-250-252-270-ANZ085-086-088-633-658-670-011100-
MARINE OBSERVATIONS

STATION/POSITION TIME  TEMP    WIND        PRES    WAVE   SWELL
                       AIR SEA DIR/SP/G            HT/PER HT/PER
                 (UTC) (F)     (DEG/KT/KT) (MB)    (FT/S) (FT/S)
CHESAPEAKE LIGHT 1000   54     350/ 19/ 20 1004.6
64 E VA BEACH    1000   59 65  330/ 12/ 14 1002.8    6/ 9   5/ 9
DUCK             1000   51 64  310/ 12/ 15 1003.6
2 E DUCK         NOT AVBL
10 NE DUCK       0900      66                N/A     4/ 6
OREGON INLET     1000   53 63  290/  8/ 12 1004.2
13E OREGON INLT  1000      68                N/A     5/ 6
HATTERAS CG      1000   55 63  330/ 13/ 16 1005.2
DIAMOND BUOY     1000   59     330/ 12/ 16 1004.3    4/ 7   3/ 7
17 S OCRACOKE    NOT AVBL
CAPE LOOKOUT     1000   55     360/  9/ 11 1005.2
BEAUFORT LAB     1000   53 66  360/  7/  9 1004.6
30 SE NEW RIVER  1000   60 73   30/  8/ 10 1004.2    3/ 8   3/ 8
5 SE WRIGHTSVLE  1000   59 71  100/ 12/ 14   N/A
225 S CAPE HAT   0905   72 77  290/ 16/ 19 1004.3    5/ 8   3/ 8
41 SE CHARLESTON 1000   61 76  280/ 19/ 25 1004.7    5/ 5   2/ 8

$$



USA.gov is the U.S. government's official web portal to all federal, state and local government web resources and services.